CZ-6A DEB, 60848

Orbit data source: Space-Track

CZ-6A DEB, 60848 is space debris in LEO originally from a launch on Tue, 06 Aug 2024 UTC launched from the Taiyaun Space Center, China (TSC). Debris objects in space refer to the collection of defunct objects orbiting the Earth. Examples of debris include non-operational satellites, rocket bodies, and fragments generated from explosions, collisions, or faulty payload assembly.

Loading next visibility...
Identifier
60848, 2024-140JB
Orbit
LEO
Country
Flag of CNCN / PRC
Related business
Manufacturer
SAST
Mission
Spacecraft
Bus & Motor
Unknown
Mass
Unknown
Launch date (UTC)
2024-08-06 (1 year ago)
Launch vehicle
Unknown
Launch site
Taiyaun Space Center, China (TSC)
Object type
Payload
Rocket body
Debris
Shape & HBR
Unknown shape, 0.1 m
Radar Cross Section
Small (<0.1 m²)

Expand to show TLE details & history
Last TLE update: 7 hours ago

TLE from 7 hours ago
0 CZ-6A DEB
1 60848U 24140JB  25351.31259633  .00011157  00000-0  17202-2 0  9994
2 60848  88.7254 274.5895 0143777  69.4940 292.1640 14.66519172 70309
Epoch: 2025-12-17T07:30Z
TLE epoch observation values (Epoch: 2025-12-17T07:30:08.322Z)
Latitude
-0.00003°
Longitude
75.87057°
Altitude
638.331 km
Speed
7.559 km/s
True Right ascension
18h 18m 21s
True Declination
0° 00' 00"
Sunlit
Object was in daylight at epoch
Visualization orbit readout
Latitude
Unknown
Longitude
Unknown
Altitude
Unknown
Speed
Unknown
Apparent Right ascension
Unknown
Apparent Declination
Unknown
Sunlit
N/A
Visualization observer readout
Local Sidereal Time
12:48:29
Azimuth
Unknown
Elevation
Unknown
Doppler factor
Unknown
Orbital elements
Apogee altitude
770.411 km
Perigee altitude
567.765 km
Semi-major axis
7,047.225 km
Eccentricity
0.01438
Inclination
88.7254°
RAAN
274.5895°
Arg. of periapsis
69.494°
True anomaly
290.62795°
Mean anomaly
292.164°
Eccentric anomaly
291.397°
Mean motion
3.66873 °/min
Orbital period
98.13 mins
BSTAR
0.0017202
Loading maneuver chart data...
Computing Atmospheric mass density...
Loading historical data...
Loading historical data...
Loading historical data...
Loading historical data...
Loading historical data...
Loading historical data...
Loading historical data...

Documentation

Showing up to 5 results
|